Погода в Ситцева

Россия / Челябинская область     55°47′12″N   59°44′02″E
темп.,
°C
ветер,
м/с
пор.,
м/с
влажн.,
%
обл.,
%
осадки,
мм/ч
давл.,
гПа
погр.,
м
21 апреля, ср
ср2123:00−1з11660 0.0 103210
02:00−1зюз11690 0.0 103310
05:00−2юз11714 0.0 103311
08:00+2зюз12560 0.0 1033186
11:00+7зсз23420 0.0 1033853
14:00+11сз11350 0.0 10321134
17:00+11з013475 0.0 10311259
20:00+7в2251100 0.0 103210
22 апреля, чт
чт2223:00+4юв226240 0.0 103316
02:00+3юв226575 0.0 103314
05:00+2ююв2265100 0.0 103312
08:00+5ююв1358100 0.0 1033102
11:00+9ю3541100 0.0 1033581
14:00+10ю4641100 0.0 10331153
17:00+9ю474678 0.0 1032890
20:00+7ю3758100 0.0 1033257
23 апреля, пт
пт2323:00+5юв2263100 0.0 103225
02:00+5ююв2263100 0.0 103139
05:00+4ю2567100 0.0 1032118
08:00+5ю31182100 0.8 1031806
11:00+6ююз4877100 0.9 1031908
14:00+7юз367280 0.2 1031983
17:00+10ю4664100 0.4 10291322
20:00+8юв2578100 0.2 1029117
24 апреля, сб
сб2423:00+6юв2284100 0.2 102823
02:00+6юв1287100 0.1 102634
05:00+6юв2694100 1.1 1025595
08:00+5вюв3794100 0.2 1024626
11:00+5ююв3995100 0.5 1023843
14:00+10юв5861100 0.1 10201549
17:00+9юв585396 0.1 10191622
20:00+6юв5963100 0.0 1019938
25 апреля, вс
вс2523:00+4юв4108487 0.0 1018670
02:00+3юв3891100 0.0 1017607
05:00+2вюв3894100 0.0 1016417
08:00+4вюв378099 0.0 1014381
11:00+7вюв356393 0.0 1013991
14:00+7ююв236994 0.1 1013913
17:00+8юз356895 0.1 1013957
20:00+6з7118043 1.3 10151116